sat.trackr.live / text

‹ back to catalog

STARLINK-3277

NORAD 50182 · 2021-125AC

PAYLOAD ACTIVE UNKNOWN

§ Identity

Operator
Country
US
Launch date
2021-12-18
Launch site
AFWTR
Launch vehicle
Mass (kg)
RCS (m²)

Purposes: comms

External: N2YO · Heavens-Above · Gunter

§ Orbital elements

Epoch: 2026-09-09T22:23:36.932640Z

Period
94.01 min
Inclination
53.1593°
Eccentricity
0.0001277
Mean motion
15.31700876 rev/d
Perigee alt
469.9 km
Apogee alt
471.6 km
Semi-major
6,848.9 km
B*
-1.0901e-6
RAAN
128.0121°
Arg perigee
80.3817°
Mean anomaly
279.7328°
Rev number
26,464

§ Raw data

STARLINK-32771 50182U 21125AC  26252.93306635 -.00000399  00000+0 -10901-5 0  99972 50182  53.1593 128.0121 0001277  80.3817 279.7328 15.31700876264641

JSON: /api/v1/satellites/50182 · /tle

For live sub-satellite position, see the globe view (requires WebGL).

§ Visibility from observer

Set your observer location to see the next 7 days of passes ≥ 10°. The values pass through the URL so the page stays shareable.

No JS? Fill the form by hand. The geolocation button needs JavaScript.